Weather History for Minot, ND

Change the Weather History Date:

Thursday, May 9, 2013

  Actual Average Record
Temperature  
Mean Temperature 43 °F 53 °F  
Max Temperature 60 °F 65 °F 93 °F (1916)
Min Temperature 26 °F 41 °F 20 °F (1945)
Degree Days  
Heating Degree Days 22    
Cooling Degree Days 0 0  
Month to date cooling degree days 0 0  
Year to date cooling degree days 0 1  
Moisture  
Dew Point 22 °F    
Average Humidity 50    
Maximum Humidity 81    
Minimum Humidity 19    
Precipitation  
Precipitation 0.00 in 0.08 in 0.65 in (1973)
Month to date precipitation 0.00 0.61  
Year to date precipitation 1.62 3.50  
Sea Level Pressure  
Sea Level Pressure 30.28 in    
Wind  
Wind Speed 7 mph (NE)    
Max Wind Speed 15 mph    
Max Gust Speed 23 mph    
Visibility 10 miles    
Events      
T = Trace of Precipitation, MM = Missing Value Source: NWS Daily Summary

Daily Weather History Graph

Daily Weather History Graph

Search for Another Location

Airport:

Trip Planner

Search our weather history database for the weather conditions in past years. The results will help you decide how hot, cold, wet, or windy it might be!

Date:

Astronomy

May. 09, 2013 Rise Set
Actual Time 6:13 AM CDT 9:10 PM CDT
Civil Twilight 5:37 AM CDT 9:47 PM CDT
Nautical Twilight 4:50 AM CDT 10:34 PM CDT
Astronomical Twilight 3:53 AM CDT 11:31 PM CDT
Moon 6:01 AM CDT (5/9) 9:07 PM CDT (5/9)
Length of Visible Light 16h 10m
Length of Day
14h 57m
Waning Crescent, 0% of the Moon is Illuminated
May 9
Waning Crescent
May 9
New
May 17
First Quarter
May 24
Full
May 31
Last Quarter

Hourly Weather History & Observations

Time (CDT) Temp. Windchill Dew Point Humidity Pressure Visibility Wind Dir Wind Speed Gust Speed Precip Events Conditions
12:54 AM 33.8 °F 28.6 °F 26.6 °F 75% 30.25 in 10.0 mi NNE 5.8 mph - N/A   Clear
1:54 AM 33.1 °F 28.7 °F 26.1 °F 75% 30.30 in 10.0 mi North 4.6 mph - N/A   Clear
2:54 AM 30.0 °F 24.1 °F 24.1 °F 79% 30.31 in 10.0 mi NNW 5.8 mph - N/A   Clear
3:54 AM 28.9 °F 22.8 °F 23.0 °F 78% 30.31 in 10.0 mi NNW 5.8 mph - N/A   Clear
4:54 AM 27.0 °F 18.7 °F 21.9 °F 81% 30.31 in 10.0 mi NNW 8.1 mph - N/A   Clear
5:54 AM 26.1 °F 17.6 °F 21.0 °F 81% 30.32 in 10.0 mi NNW 8.1 mph - N/A   Clear
6:54 AM 27.0 °F 21.6 °F 21.9 °F 81% 30.33 in 10.0 mi NNW 4.6 mph - N/A   Clear
7:54 AM 33.1 °F 27.7 °F 25.0 °F 72% 30.35 in 10.0 mi North 5.8 mph - N/A   Clear
8:54 AM 39.0 °F 34.0 °F 21.9 °F 50% 30.36 in 10.0 mi NE 6.9 mph - N/A   Clear
9:54 AM 43.0 °F 37.7 °F 23.0 °F 45% 30.35 in 10.0 mi ENE 9.2 mph - N/A   Clear
10:54 AM 48.0 °F - 23.0 °F 37% 30.34 in 10.0 mi ENE 8.1 mph - N/A   Clear
11:54 AM 51.8 °F - 19.4 °F 28% 30.30 in 10.0 mi NE 11.5 mph - N/A   Clear
12:54 PM 55.9 °F - 17.1 °F 22% 30.32 in 10.0 mi ENE 12.7 mph 17.3 mph N/A   Clear
1:54 PM 55.9 °F - 17.1 °F 22% 30.30 in 10.0 mi ENE 10.4 mph - N/A   Clear
2:54 PM 57.9 °F - 17.1 °F 20% 30.28 in 10.0 mi NE 10.4 mph 16.1 mph N/A   Clear
3:54 PM 59.0 °F - 17.1 °F 20% 30.27 in 10.0 mi ENE 8.1 mph - N/A   Clear
4:54 PM 60.1 °F - 17.1 °F 19% 30.25 in 10.0 mi East 9.2 mph - N/A   Clear
5:54 PM 60.1 °F - 18.0 °F 20% 30.24 in 10.0 mi ESE 8.1 mph - N/A   Clear
6:54 PM 59.0 °F - 18.0 °F 20% 30.23 in 10.0 mi ENE 8.1 mph - N/A   Clear
7:54 PM 57.0 °F - 21.0 °F 25% 30.21 in 10.0 mi ESE 8.1 mph - N/A   Clear
8:54 PM 51.8 °F - 23.0 °F 33% 30.18 in 10.0 mi East 5.8 mph - N/A   Clear
9:54 PM 46.0 °F 42.5 °F 25.0 °F 44% 30.22 in 10.0 mi East 6.9 mph - N/A   Clear
10:54 PM 45.0 °F 41.8 °F 27.0 °F 49% 30.22 in 10.0 mi SE 5.8 mph - N/A   Clear
11:54 PM 42.8 °F - 28.4 °F 57% 30.18 in 10.0 mi Calm Calm - N/A   Clear